Lapse_Rate
7.7 7.8 7.8 7.9 7.9 7.9 7.9 7.8 7.7 7.6 7.6 7.6 7.6 7.5 7.4 7.3 7.3 7.2 7.1 7.0 6.9 6.9 6.8 6.8 6.8 6.7 6.6 6.6 6.6 6.6 6.7 6.8
7.5 7.6 7.7 7.7 7.7 7.7 7.7 7.7 7.7 7.6 7.5 7.4 7.4 7.2 7.3 7.3 7.4 7.3 7.3 7.4 7.3 7.2 7.1 7.0 6.9 6.8 6.8 6.7 6.6 6.8 6.7 6.7
7.2 7.2 7.3 7.3 7.3 7.3 7.4 7.4 7.4 7.4 7.2 7.3 7.3 7.2 7.2 7.1 7.1 7.0 7.0 7.1 7.1 7.0 7.0 6.9 6.8 6.7 6.6 6.6 6.5 6.5 6.5 6.6
7.3 7.3 7.2 7.1 7.1 7.1 7.2 7.1 7.1 7.1 7.1 7.1 7.1 7.1 7.0 7.0 6.9 6.9 6.9 6.9 6.9 7.0 7.0 6.9 6.8 6.8 6.7 6.5 6.6 6.6 6.6 6.4
7.3 7.3 7.4 7.5 7.5 7.4 7.2 7.1 7.1 7.1 7.0 7.1 7.1 7.0 7.0 6.9 6.9 6.9 6.9 6.9 6.8 6.9 6.9 6.8 6.7 6.7 6.6 6.5 6.6 6.7 6.6 6.6
7.2 7.3 7.3 7.4 7.4 7.4 7.4 7.4 7.2 7.1 7.0 6.9 7.0 6.9 6.8 6.8 6.8 6.8 6.6 6.6 6.6 6.6 6.6 6.6 6.6 6.7 6.9 6.8 6.6 6.5 6.5 6.7
7.1 7.2 7.1 7.2 7.1 7.1 7.1 7.1 7.1 7.0 7.0 7.0 7.0 6.7 6.6 6.7 6.8 6.7 6.5 6.4 6.4 6.3 6.3 6.3 6.3 6.4 6.5 6.6 6.5 6.7 6.5 6.5
6.9 6.9 6.8 6.8 6.8 6.8 6.9 6.9 6.8 6.7 6.8 6.9 6.9 6.8 6.7 6.8 6.8 6.7 6.9 6.8 6.7 6.5 6.3 6.2 6.1 6.2 6.3 6.4 6.4 6.4 6.5 6.4
6.9 6.6 6.6 6.6 6.6 6.6 6.6 6.6 6.6 6.7 6.7 6.7 6.7 6.6 6.6 6.7 6.7 6.7 6.7 6.8 6.7 6.7 6.7 6.8 6.6 6.6 6.5 6.5 6.6 6.4 6.3 6.3
6.6 6.4 6.6 6.6 6.7 6.5 6.4 6.4 6.5 6.6 6.6 6.7 6.6 6.6 6.6 6.6 6.7 6.7 6.8 6.8 6.7 6.8 6.8 6.8 6.8 6.8 6.8 6.8 6.7 6.6 6.5 6.1
6.4 6.4 6.6 6.6 6.6 6.6 6.6 6.4 6.4 6.4 6.5 6.5 6.5 6.5 6.5 6.5 6.5 6.6 6.6 6.6 6.7 6.6 6.5 6.4 6.4 6.4 6.3 6.6 6.6 6.5 6.2 6.1
6.7 6.6 6.4 6.6 6.6 6.5 6.5 6.4 6.3 6.3 6.3 6.2 6.2 6.2 6.2 6.2 6.3 6.4 6.4 6.3 6.3 6.2 6.3 6.3 6.3 6.2 6.2 6.0 6.1 6.1 5.9 5.7
6.8 6.6 6.4 6.5 6.5 6.4 6.4 6.2 6.1 6.0 6.0 6.0 6.0 6.0 6.2 6.2 6.2 6.2 6.2 6.3 6.3 6.3 6.2 6.2 6.0 5.9 6.1 6.1 5.9 6.3 6.4 6.4
6.8 6.5 6.5 6.6 6.5 6.4 6.3 6.2 6.0 5.9 5.9 5.9 6.0 6.0 6.1 6.2 6.2 6.2 6.4 6.5 6.6 6.5 6.5 6.4 6.4 6.2 6.2 6.2 6.5 6.5 6.3 6.2
6.7 6.6 6.5 6.6 6.4 6.2 6.1 5.9 5.9 5.9 5.9 5.9 6.0 6.1 6.2 6.3 6.4 6.5 6.5 6.5 6.5 6.4 6.3 6.3 6.3 6.4 6.5 6.6 6.7 6.9 6.5 6.0
6.8 6.6 6.7 6.7 6.4 6.3 6.1 5.9 5.8 5.9 6.0 6.1 6.2 6.3 6.3 6.4 6.5 6.6 6.4 6.3 6.2 6.2 6.3 6.4 6.5 6.8 6.7 6.7 6.7 6.6 6.7 6.7
6.4 6.5 6.7 6.6 6.5 6.4 6.2 6.1 6.2 6.1 6.0 6.0 6.2 6.4 6.6 6.7 6.6 6.4 6.1 6.0 6.1 6.3 6.5 6.8 6.8 6.8 6.8 6.8 6.5 6.5 6.5 6.9
6.6 6.6 6.7 6.6 6.6 6.5 6.4 6.2 6.1 6.0 6.0 6.1 6.2 6.2 6.2 6.1 6.1 6.0 6.0 6.1 6.3 6.6 6.7 6.6 6.4 6.4 6.3 6.5 6.7 6.8 6.8 6.6
6.7 6.8 6.8 6.7 6.6 6.5 6.3 6.2 6.0 5.9 6.0 5.9 6.0 6.1 6.1 6.1 6.0 6.2 6.2 6.3 6.6 6.5 6.4 6.3 6.1 6.0 6.2 6.5 6.9 6.9 6.7 6.4
6.7 6.9 6.7 6.7 6.4 6.3 6.3 6.3 6.1 6.0 5.9 5.9 6.1 6.3 6.2 6.2 6.3 6.3 6.4 6.4 6.3 6.2 6.0 6.0 5.8 6.2 6.5 6.6 6.7 6.6 6.5 6.5
Wind_Speed
13 14 16 17 20 19 18 16 15 14 11 9 7 5 3 4 5 7 7 7 9 8 10 11 11 11 10 10 10 9 8 7
10 12 13 13 13 16 17 16 16 14 12 12 9 7 6 6 5 6 6 7 8 9 10 12 14 13 12 14 15 13 12 10
9 9 12 12 12 12 11 13 15 16 15 14 10 7 7 5 4 5 5 6 7 7 9 11 13 11 11 15 17 11 10 12
6 8 10 11 11 13 13 12 13 16 15 14 12 12 12 10 13 14 15 12 10 6 4 5 7 8 8 12 9 13 12 11
6 5 10 10 9 10 10 11 11 12 16 14 12 11 12 12 10 12 12 13 12 10 10 10 7 6 5 7 8 12 11 12
5 7 7 11 10 10 10 10 11 11 14 16 11 9 9 10 10 11 11 13 10 11 8 8 7 7 6 6 7 7 8 9
5 6 6 8 9 9 10 10 12 12 14 17 14 10 6 8 9 10 11 11 11 9 9 9 7 8 7 5 4 6 8 8
5 6 7 9 6 9 8 11 11 14 15 16 17 14 11 9 8 9 11 13 11 8 7 5 4 7 5 8 7 8 8 8
7 6 7 7 6 9 10 12 14 13 13 17 18 17 13 11 9 7 11 11 12 10 10 8 5 7 6 7 9 11 11 9
5 5 7 6 7 9 11 12 13 13 13 15 17 17 16 12 8 8 13 12 10 7 6 6 5 5 5 6 6 8 10 11
6 6 7 7 8 11 12 13 13 12 14 14 15 15 16 11 10 10 11 9 8 6 6 6 5 7 7 7 6 6 6 7
7 5 6 7 6 7 8 9 10 13 12 13 14 13 14 12 10 11 11 5 6 6 6 6 3 8 8 7 6 5 4 3
5 6 4 4 2 4 4 4 3 5 11 13 14 14 14 13 10 10 11 7 7 8 5 7 3 9 4 6 4 4 4 4
5 6 6 3 3 3 3 3 4 4 8 10 13 14 15 13 11 6 8 5 7 6 7 5 3 6 3 4 4 4 5 5
6 5 6 4 5 6 5 4 3 3 3 3 10 13 13 12 10 8 7 5 5 6 8 9 7 7 8 4 4 3 7 3
6 6 6 5 5 5 4 3 3 2 2 2 5 12 11 11 11 10 8 6 6 6 7 6 6 6 4 7 5 5 3 5
6 6 6 5 6 7 7 7 4 3 3 4 5 6 10 10 11 10 8 7 6 7 7 7 5 5 4 4 5 5 5 4
6 7 5 6 6 6 8 8 6 4 3 3 3 3 5 11 13 12 11 9 6 6 7 9 7 6 5 5 4 3 5 3
7 7 6 6 7 6 7 7 7 7 5 3 4 3 4 6 10 9 7 9 11 11 7 8 7 7 8 6 5 5 5 4
8 8 8 7 7 6 6 6 5 4 5 3 3 4 4 9 10 10 10 12 12 10 7 6 6 6 9 8 5 5 5 4
Wind_Direction
39 38 42 43 43 41 44 45 38 33 28 19 0 330 285 260 261 259 257 253 254 252 262 267 253 238 240 241 228 227 232 240
33 37 39 44 43 41 44 45 43 38 30 20 8 351 352 333 309 292 286 278 272 273 272 270 272 275 269 254 252 244 240 241
27 37 39 40 45 39 39 41 44 39 26 18 20 11 9 355 357 352 331 308 292 286 283 283 287 282 271 261 259 252 243 241
20 29 36 44 50 36 33 35 38 37 28 24 30 28 33 45 51 47 45 39 38 23 350 322 312 287 273 278 254 248 237 235
32 34 46 47 43 44 39 35 38 35 31 25 27 30 25 31 37 37 32 28 31 32 36 28 18 349 303 296 276 250 233 232
48 48 56 53 54 48 46 47 41 36 32 26 27 28 30 33 37 31 26 20 18 22 18 19 21 16 9 342 321 300 250 243
64 63 60 61 62 55 55 53 51 44 35 27 26 27 34 34 36 33 33 16 24 17 7 356 358 351 348 349 329 320 304 269
87 78 76 81 74 65 60 59 56 54 45 33 31 29 23 32 28 30 29 12 7 14 9 351 339 335 324 326 307 294 290 280
98 93 89 79 80 78 67 60 56 52 45 38 36 34 30 33 30 26 18 13 6 5 6 355 353 334 339 321 314 307 295 283
99 101 99 91 87 82 74 63 62 57 49 43 38 35 33 39 35 24 10 20 13 5 8 351 343 334 325 304 297 292 290 288
107 91 95 100 85 79 73 66 59 54 51 43 34 34 32 41 38 27 22 28 23 14 3 357 337 340 317 297 283 285 289 298
110 99 104 106 105 97 82 70 60 52 47 44 36 31 33 35 33 27 24 28 24 15 10 357 325 337 313 302 290 288 303 294
118 114 106 125 112 103 75 68 53 48 50 43 38 33 31 33 30 25 22 28 17 10 357 358 345 352 330 334 318 332 14 22
103 100 103 112 110 112 119 121 79 83 62 50 40 35 31 35 29 20 17 21 19 13 18 2 350 356 339 311 336 333 356 12
126 111 100 101 114 111 99 99 83 53 31 41 37 40 35 31 28 26 22 26 20 11 15 14 1 2 350 7 339 327 337 331
131 115 101 93 104 108 110 114 112 70 66 54 42 43 34 29 31 31 30 28 29 24 24 21 12 2 339 4 353 312 323 315
120 103 91 91 92 100 104 98 99 112 82 72 49 36 38 36 38 33 32 27 27 33 31 27 28 25 9 338 331 323 289 315
132 120 104 92 93 98 108 117 120 108 88 70 43 27 30 32 36 32 26 18 21 27 35 39 28 35 23 15 9 347 352 331
130 127 118 113 103 102 109 114 114 111 106 90 61 34 30 28 35 31 25 15 31 28 32 33 30 31 26 13 17 9 344 319
139 142 131 125 121 125 120 121 115 109 107 101 86 71 46 37 39 34 36 35 49 41 35 35 27 27 32 22 19 14 342 357